sat.trackr.live / text

‹ back to catalog

STARLINK-1063

NORAD 44768 · 2019-074BH

PAYLOAD ACTIVE UNKNOWN

§ Identity

Operator
Country
US
Launch date
2019-11-11
Launch site
AFETR
Launch vehicle
Mass (kg)
RCS (m²)

Purposes: comms

External: N2YO · Heavens-Above · Gunter

§ Orbital elements

Epoch: 2026-09-12T00:09:11.623392Z

Period
92.25 min
Inclination
53.1492°
Eccentricity
0.0001709
Mean motion
15.61022008 rev/d
Perigee alt
383.5 km
Apogee alt
385.9 km
Semi-major
6,762.8 km
B*
9.8432e-4
RAAN
50.7902°
Arg perigee
164.3129°
Mean anomaly
195.7938°
Rev number
37,716

§ Raw data

STARLINK-10631 44768U 19074BH  26255.00638453  .00084627  00000+0  98432-3 0  99942 44768  53.1492  50.7902 0001709 164.3129 195.7938 15.61022008377162

JSON: /api/v1/satellites/44768 · /tle

For live sub-satellite position, see the globe view (requires WebGL).

§ Visibility from observer

Set your observer location to see the next 7 days of passes ≥ 10°. The values pass through the URL so the page stays shareable.

No JS? Fill the form by hand. The geolocation button needs JavaScript.